FW1609 Weather Reports


Display with metric or nautical units.
time (UTC)temp
F
wind
direction
speed
MPH
gust
MPH
rain 1hr
in
rain 24hr
in
rain mn
in
humidity
%
barometer
mb
20260504081518 62 337 3.0 8.0 0.01 0.03 0.01 81 1013.7
20260504060104 65 326 2.0 11.0 0.00 0.02 0.02 75 1012.8
20260504044516 66 328 10.0 17.0 0.00 0.02 0.02 73 1012.6
20260504043015 66 325 6.0 16.0 0.00 0.02 0.02 73 1012.8
20260504041510 66 310 13.0 18.0 0.00 0.02 0.02 73 1012.8
20260504040010 67 323 13.0 20.0 0.00 0.02 0.02 71 1012.8
20260504034508 66 302 12.0 17.0 0.00 0.02 0.02 72 1012.9
20260504033007 66 316 13.0 21.0 0.00 0.02 0.02 72 1013.0
20260504031500 66 335 11.0 15.0 0.00 0.02 0.02 72 1013.2
20260504030114 65 310 8.0 13.0 0.00 0.02 0.02 73 1013.4
20260504024556 65 316 6.0 15.0 0.00 0.02 0.02 73 1013.5
20260504023055 65 351 9.0 15.0 0.00 0.02 0.02 75 1013.6
20260504021548 64 332 10.0 14.0 0.01 0.02 0.02 77 1013.9
20260504020047 63 333 10.0 14.0 0.01 0.02 0.02 80 1014.2
20260504014546 62 318 11.0 14.0 0.01 0.02 0.02 83 1014.6
20260504013045 61 15 4.0 10.0 0.01 0.02 0.02 86 1014.7
20260504011539 60 316 7.0 11.0 0.00 0.02 0.02 89 1015.0
20260504010040 59 300 1.0 4.0 0.00 0.02 0.02 89 1015.2
20260504004535 59 297 0.0 4.0 0.01 0.02 0.02 90 1015.5
20260504003040 58 326 0.0 3.0 0.01 0.02 0.02 90 1015.8
20260504001631 58 295 0.0 0.0 0.01 0.02 0.02 89 1016.0
20260504000137 58 295 0.0 0.0 0.01 0.02 0.02 89 1016.2
20260503234553 57 295 0.0 0.0 0.00 0.01 0.01 88 1016.2
20260503233052 57 295 0.0 1.0 0.01 0.01 0.01 87 1016.2
20260503231551 58 295 2.0 7.0 0.01 0.01 0.01 86 1016.3
20260503230054 58 306 2.0 9.0 0.01 0.01 0.01 84 1016.3
20260503224526 59 295 3.0 10.0 0.01 0.01 0.01 81 1016.3
20260503223018 60 291 6.0 12.0 0.00 0.00 0.00 80 1016.1
20260503221512 57 251 0.0 1.0 0.00 0.00 0.00 78 1016.0
20260503220018 57 127 0.0 0.0 0.00 0.00 0.00 78 1015.7
20260503214506 56 127 0.0 0.0 0.00 0.00 0.00 79 1015.6
20260503213006 55 113 0.0 0.0 0.00 0.00 0.00 80 1015.4
20260503211606 55 113 0.0 0.0 0.00 0.00 0.00 80 1015.1
20260503210100 54 113 0.0 0.0 0.00 0.00 0.00 80 1015.0
20260503204558 54 113 0.0 0.0 0.00 0.00 0.00 81 1014.9
20260503203108 53 113 0.0 0.0 0.00 0.00 0.00 81 1014.6
20260503201600 52 345 0.0 0.0 0.00 0.00 0.00 81 1014.7
20260503200052 52 345 0.0 0.0 0.00 0.00 0.00 81 1014.6
20260503194554 52 345 0.0 0.0 0.00 0.00 0.00 81 1014.6
20260503193050 52 345 0.0 0.0 0.00 0.00 0.00 82 1014.5
20260503191550 52 345 0.0 0.0 0.00 0.00 0.00 82 1014.3
20260503190044 52 345 0.0 0.0 0.00 0.00 0.00 82 1014.3
20260503184602 52 345 0.0 0.0 0.00 0.00 0.00 81 1014.3
20260503183048 52 345 0.0 0.0 0.00 0.00 0.00 82 1014.2
20260503181543 52 345 0.0 0.0 0.00 0.00 0.00 81 1014.3
20260503180039 52 345 0.0 0.0 0.00 0.00 0.00 81 1014.2
20260503174534 52 345 0.0 0.0 0.00 0.00 0.00 81 1014.2
20260503173035 52 345 0.0 0.0 0.00 0.00 0.00 81 1014.3
20260503171542 52 345 0.0 0.0 0.00 0.00 0.00 82 1014.4